Location: Oroua River
(40.4333°S, 175.4333°E)
Time: 12:54:32
(UTC+00:00)

MSX - Visible Passes

Search period start: 26 September 2023 00:00
Search period end: 06 October 2023 00:00
Orbit: 893 x 906 km, 98.9° (Epoch: 25 September)

Date Brightness Start Highest point End Pass type
(mag) Time Alt. Az. Time Alt. Az. Time Alt. Az.
26 Sep 6.5 12:47:51 13° S 12:47:51 13° S 12:48:27 10° S visible
27 Sep 6.5 12:50:22 14° S 12:50:22 14° S 12:51:07 10° S visible
28 Sep 6.4 12:52:53 14° S 12:52:53 14° S 12:53:46 10° S visible
29 Sep 6.4 12:55:25 15° S 12:55:25 15° S 12:56:25 10° S visible
30 Sep 6.3 12:57:56 16° S 12:57:56 16° S 12:59:04 10° S visible
01 Oct 6.3 13:00:27 17° S 13:00:27 17° S 13:01:43 10° S visible
02 Oct 6.2 13:02:58 18° S 13:02:58 18° S 13:04:22 10° S visible
03 Oct 6.1 13:05:29 19° S 13:05:29 19° S 13:07:01 10° S visible
04 Oct 6.1 13:08:00 19° S 13:08:00 19° S 13:09:38 10° S visible
05 Oct 6.0 13:10:32 20° S 13:10:32 20° S 13:12:17 10° S visible
